Regional Weather Roundup
Issued by NWS Cleveland, OH

Home | Current Version | Previous Version | Graphics & Text | Print | Product List | Glossary On
Versions: 1 2 3 4 5 6 7 8 9 10 11 12 13 14 15 16 17 18 19 20 21 22 23 24 25 26 27 28 29 30 31 32 33 34 35 36 37 38 39 40 41 42 43 44 45 46 47 48 49 50
000
ASUS41 KCLE 211602
RWRCLE
OHIO REGIONAL WEATHER ROUNDUP
NATIONAL WEATHER SERVICE CLEVELAND, OH
1100 AM EST TUE FEB 21 2017

NOTE: "FAIR" INDICATES FEW OR NO CLOUDS BELOW 12,000 FEET WITH NO
SIGNIFICANT WEATHER AND/OR OBSTRUCTIONS TO VISIBILITY.

OHZ001>008-015>018-024>027-034-035-043-044-211700-
   NORTHWEST OHIO

CITY           SKY/WX    TMP DP  RH WIND       PRES   REMARKS
DEFIANCE       CLOUDY    51  42  71 SW6       29.99S
FINDLAY        CLOUDY    59  42  53 SW7       29.97F
TOLEDO EXPRESS PTSUNNY   51  42  71 W10       29.97S
TOLEDO EXEC    CLOUDY    54  44  69 W7        29.98S
LIMA           CLOUDY    58  45  62 SW10      29.99S
$$

OHZ009>014-019>023-028>033-038-089-211700-
   NORTHEAST OHIO

CITY           SKY/WX    TMP DP  RH WIND       PRES   REMARKS
CLE-HOPKINS    CLOUDY    60  37  42 SW10      30.02S
CLE-LAKEFRONT  CLOUDY    58  36  43 S14       29.97F
CUY CO. ARPT   CLOUDY    59  39  47 S16       29.99F
LORAIN-ELYRIA  MOSUNNY   57  39  51 SW9       29.99S
ASHTABULA      CLOUDY    53  35  50 S8        30.02F
AKRON-CANTON   CLOUDY    59  37  44 SW14      30.03F
WOOSTER        CLOUDY    55  40  56 SW13      30.02F
MANSFIELD      CLOUDY    59  42  53 S12       30.01F
YOUNGSTOWN     CLOUDY    55  34  45 S10       30.04F
$$

OHZ042-051>053-060>062-070>072-077>081-211700-
  SOUTHWEST OHIO

CITY           SKY/WX    TMP DP  RH WIND       PRES   REMARKS
CINC-COVINGTON CLOUDY    64  46  52 SW9       30.02S
CINC-LUNKEN    CLOUDY    58  47  66 CALM      30.03F
HAMILTON       CLOUDY    61  47  59 CALM      30.03F
DAYTON         CLOUDY    57  42  57 S9        30.02F
WRIGHT-PAT AFB PTSUNNY   60  48  64 SW5       30.01F
DAYTON GENERAL CLOUDY    60  45  57 S9        30.01F
WILMINGTON     MOSUNNY   63  46  54 SW15      30.02F
$$

OHZ036-037-039>041-045>050-054>059-063>069-073>076-082>088-211700-
  CENTRAL AND SOUTHEAST OHIO

CITY           SKY/WX    TMP DP  RH WIND       PRES   REMARKS
COLUMBUS       CLOUDY    60  43  53 S7        30.03F
OSU AIRPORT    CLOUDY    58  44  60 S6        30.03F
BOLTON FIELD   SUNNY     57  45  62 S5        30.04F
RICKENBACK AFB CLOUDY    58  44  58 S8        30.03F
NEWARK         MOSUNNY   59  43  55 S6        30.04F
MARION         CLOUDY    59  43  55 SW10      30.00F
LANCASTER      CLOUDY    64  43  46 S5        30.05S
ZANESVILLE     MOSUNNY   64  38  38 S13       30.06S
NEW PHILLY     NOT AVBL
$$




USA.gov is the U.S. government's official web portal to all federal, state and local government web resources and services.